Location: Penton Mewsey
(51.2167°N, 1.5167°W)
Time: 23:13:08
(UTC+00:00)

Cosmos 1943 - Pass Details

Date: 30 March 2020
Orbit: 832 x 851 km, 71.0° (Epoch: 27 May)

Event Time Altitude Azimuth Distance (km) Brightness Sun altitude
Exits shadow 21:41:53 10° 218° (SW) 2,468 5.5 -26.2°
Reaches altitude 10° 21:41:55 10° 218° (SW) 2,454 5.5 -26.2°
Maximum altitude 21:47:33 70° 303° (WNW) 897 3.4 -26.7°
Drops below altitude 10° 21:53:14 10° 27° (NNE) 2,482 5.9 -27.3°
Sets 21:55:43 0° 30° (NNE) 3,423 6.6 -27.6°
